#timestamp,LO_Frequency,Hit,StdDev 
1513450815.7,286047000.9,N
1513450835.5,286047000.2,N
1513450855.4,286047000.4,N
1513450875.2,286047000.8,N
1513450895.1,286047002.5,N
1513450896.0,286047002.5,N
1513450915.8,286047002.6,N
1513450935.6,286047002.8,N
1513450955.5,286047002.3,N
1513450975.3,286047000.4,N
1513450995.1,286047000.1,N
1513451015.9,286047001.9,N
1513451035.7,286047002.8,N
1513451055.6,286047000.9,N
1513451075.4,286046999.7,N
1513451095.2,286047000.9,N
1513451115.1,286047002.5,N
1513451116.0,286047002.5,N
1513451135.8,286047000.3,N
1513451155.7,286047000.8,N
1513451175.5,286047001.2,N
1513451195.3,286047000.6,N
1513451215.2,286047002.8,N
1513451235.0,286047001.1,N
1513451235.9,286047001.1,N
1513451255.7,286047000.0,N
1513451275.6,286047004.1,Y
1513451295.4,286047002.7,P
1513451315.3,286047002.7,P
1513451335.1,286047000.5,N
1513451336.0,286047000.5,N
1513451355.8,286047001.8,N
1513451375.7,286047002.7,N
1513451395.5,286046999.8,N
1513451415.3,286047001.2,N
1513451435.2,286047000.2,N
1513451455.0,286047001.1,N
1513451455.9,286047001.1,N
1513451475.8,286047001.1,N
1513451495.6,286047002.5,N
1513451515.4,286047001.9,N
1513451535.3,286047000.9,N
1513451555.1,286047000.1,N
1513451575.9,286047000.3,N
1513451595.7,286046998.5,N
1513451615.5,286047001.1,N
1513451635.4,286047000.0,N
1513451655.2,286047000.7,N
1513451675.0,286047000.0,N
1513451675.9,286047000.0,N
1513451695.8,286047000.5,N
1513451715.6,286047000.4,N
1513451735.5,286047000.1,N
1513451755.3,286046999.3,N
1513451775.1,286046996.5,Y
1513451795.9,286046998.7,P
1513451815.7,286046996.9,N
1513451835.5,286046997.5,N
1513451855.4,286046996.8,N
1513451875.2,286046997.6,N
1513451895.1,286046997.7,N
1513451896.0,286046997.7,N
1513451915.8,286046995.0,Y
1513451935.7,286046999.6,P
1513451955.5,286046996.9,P
1513451975.3,286046999.1,N
1513451995.2,286046998.6,N
1513452015.9,286046999.6,N
1513452035.7,286046999.0,N
1513452055.6,286047000.2,N
1513452075.4,286047000.3,N
1513452095.3,286047001.2,N
1513452115.1,286047000.9,N
1513452116.0,286047000.9,N
1513452135.8,286046998.1,N
1513452155.7,286046999.1,N
1513452175.5,286046999.6,N
1513452195.3,286046997.0,N
1513452215.2,286046999.6,N
1513452235.0,286046996.9,N
1513452235.9,286046996.9,N
1513452255.8,286046997.0,N
1513452275.6,286046996.5,N
1513452295.4,286046998.8,N
1513452315.3,286046998.2,N
1513452335.1,286046998.6,N
1513452355.8,286046998.9,N
1513452375.7,286046998.2,N
1513452395.5,286046998.7,N
1513452415.4,286046999.3,N
1513452435.2,286046998.8,N
1513452455.0,286046999.1,N
1513452455.9,286046999.1,N
1513452475.8,286046996.5,N
1513452495.6,286046999.1,N
1513452515.4,286046998.5,N
1513452535.3,286047000.8,N
1513452555.1,286047001.1,N
1513452575.9,286046998.8,N
1513452595.7,286046996.6,N
1513452615.5,286046997.2,N
1513452635.4,286046996.6,N
1513452655.2,286046997.5,N
1513452675.0,286046997.9,N
1513452676.0,286046997.9,N
1513452695.8,286046994.9,Y
1513452715.6,286046996.6,P
1513452735.5,286046999.0,N
1513452755.3,286046999.0,N
1513452775.1,286046999.3,N
1513452795.9,286046999.1,N
1513452815.7,286046999.6,N
1513452835.6,286046998.8,N
1513452855.4,286047001.0,N
1513452875.2,286046998.2,N
1513452895.1,286046998.4,N
1513452896.0,286046998.4,N
1513452915.8,286046998.1,N
1513452935.6,286047000.3,N
1513452955.5,286047000.2,N
1513452975.3,286046999.9,N
1513452995.2,286046998.5,N
1513453015.9,286046999.4,N
1513453035.7,286046995.4,Y
1513453055.6,286046999.1,P
1513453075.4,286047001.2,P
1513453095.2,286047001.2,N
1513453115.1,286047000.7,N
1513453116.0,286047000.7,N
1513453135.8,286047001.9,N
1513453155.7,286047002.3,N
1513453175.5,286047000.0,N
1513453195.3,286047002.4,N
1513453215.2,286047002.5,N
1513453235.0,286046999.9,N
1513453235.9,286046999.9,N
1513453255.8,286047002.4,N
1513453275.6,286047002.7,N
1513453295.4,286047001.9,N
1513453315.3,286047002.7,N
1513453335.1,286047002.5,N
1513453355.8,286047003.8,Y
1513453375.7,286047001.5,P
1513453395.5,286047002.0,P
1513453415.4,286047002.3,P
1513453435.2,286047002.8,Y
1513453455.0,286046999.5,P
1513453455.9,286046999.5,N
1513453475.8,286046999.1,N
1513453495.6,286046996.5,Y
1513453515.5,286046996.7,P
1513453535.3,286046996.6,N
1513453555.1,286046998.4,N
1513453575.9,286046998.3,N
1513453595.7,286046996.5,N
1513453615.5,286046999.5,N
1513453635.4,286046999.1,N
1513453655.2,286046997.3,N
1513453675.1,286046996.6,N
1513453676.0,286046996.6,N
1513453695.8,286046997.4,N
1513453715.6,286046997.3,N
1513453735.5,286046999.6,N
1513453755.3,286046999.0,N
1513453775.2,286046999.6,N
1513453795.9,286047000.7,N
1513453815.7,286047000.9,N
1513453835.6,286046999.5,N
1513453855.4,286046996.9,N
1513453875.2,286046999.5,N
1513453895.1,286046999.5,N
1513453896.0,286046999.5,N
1513453915.8,286046999.1,N
1513453935.7,286046999.3,N
1513453955.5,286046998.3,N
1513453975.3,286047002.7,N
1513453995.2,286047002.0,N
1513454015.0,286047001.6,N
1513454015.9,286047001.6,N
1513454035.8,286047002.1,N
1513454055.6,286047002.8,N
1513454075.4,286046999.9,N
1513454095.3,286047000.0,N
1513454115.1,286047000.3,N
1513454135.8,286047000.0,N
1513454155.7,286047000.4,N
1513454175.5,286047002.2,N
1513454195.4,286047002.5,N
1513454215.2,286047001.5,N
1513454235.0,286047002.1,N
1513454235.9,286047002.1,N
1513454255.8,286047002.2,N
1513454275.6,286046998.1,N
1513454295.4,286047002.0,N
1513454315.3,286047002.4,N
1513454335.1,286047002.2,N
1513454355.9,286047002.0,N
1513454375.7,286047002.8,N
1513454395.5,286047001.5,N
